RH
36 44 49 52 54 57 55 55 52 46 44 44 41 42 51 46 48 45 44 50 49 44 41 46 40 38 38 39 35 35 40 34 34 34 32 34 32 29 38 44 46 46 54 53 71
31 31 41 46 50 54 56 54 58 50 49 45 41 42 45 43 43 42 44 38 42 50 50 44 41 43 40 39 41 39 37 31 29 32 38 38 36 34 35 45 48 49 52 64 68
35 34 33 40 47 50 57 60 61 58 62 51 45 46 47 49 46 45 43 40 50 46 48 41 40 45 41 35 41 45 39 33 33 33 34 37 44 48 41 45 53 43 53 57 70
39 38 36 35 44 48 56 69 62 59 64 57 46 49 54 58 48 47 48 54 49 45 47 56 53 52 55 47 38 40 41 35 32 32 41 46 47 61 50 55 57 50 56 67 61
44 38 37 37 39 52 53 63 63 59 63 55 48 53 60 54 52 53 48 48 44 42 53 55 53 55 56 53 50 50 42 44 39 39 43 42 49 70 53 63 67 67 65 75 65
47 43 40 32 32 50 56 68 69 73 62 63 56 64 61 53 50 45 48 46 46 49 53 56 52 54 61 60 62 60 63 55 52 47 50 51 42 50 60 56 74 68 73 81 84
60 51 40 34 30 34 52 76 83 83 79 75 73 66 63 56 53 54 50 49 46 48 54 56 56 64 68 66 66 71 63 58 51 54 56 55 54 52 59 63 59 65 56 68 79
76 63 47 40 33 37 45 68 78 76 78 72 80 73 64 59 56 58 57 49 43 47 53 60 58 67 73 66 66 67 63 66 64 62 65 73 59 53 63 71 61 74 60 61 74
86 77 61 48 37 49 70 64 86 70 87 88 81 76 70 61 61 61 46 48 50 51 59 66 67 70 75 76 72 64 70 74 86 75 69 65 69 72 74 67 75 59 58 57 68
87 81 69 48 39 44 62 89 93 82 83 86 77 74 79 74 66 49 46 48 47 59 64 73 80 80 74 80 73 73 78 74 95 80 69 78 78 71 86 64 66 59 55 57 70
90 84 81 58 45 50 60 65 95 85 87 75 77 77 71 68 60 56 49 49 49 60 66 77 81 78 76 75 73 73 70 78 95 95 72 80 78 73 73 59 64 64 64 60 74
67 76 75 57 37 38 59 73 73 65 73 75 78 79 80 74 64 53 48 52 52 60 72 81 78 70 81 88 73 70 71 78 84 87 77 76 70 65 63 55 66 74 72 74 84
88 95 96 79 66 84 84 78 60 72 77 73 74 81 78 74 65 54 49 53 49 57 72 79 71 78 83 77 76 74 78 84 93 90 83 75 73 67 71 71 78 76 76 83 87
97 98 95 80 69 75 92 96 83 76 73 71 76 81 77 76 64 50 49 49 45 60 73 68 71 79 81 83 81 84 75 85 93 98 95 73 88 87 86 78 72 72 82 86 92
94 96 86 83 82 67 70 83 62 66 78 84 82 84 80 64 50 48 51 49 60 72 73 73 74 84 87 97 92 82 73 89 82 83 95 85 81 98 92 87 79 87 89 94 95
89 93 79 70 71 65 68 67 60 80 86 88 87 78 62 57 57 53 45 48 58 73 78 75 79 84 90 92 94 90 81 82 84 86 97 96 98 99 94 90 90 79 87 95 98
85 94 75 65 70 68 59 73 75 83 82 88 80 66 60 61 71 57 48 63 73 93 79 76 84 85 90 96 94 94 81 95 95 91 96 98 98 98 93 93 91 85 86 90 94
85 86 83 72 67 70 68 82 87 67 87 87 70 57 59 62 66 57 63 77 76 79 74 83 91 89 93 93 94 94 95 97 77 88 94 92 97 98 89 90 93 89 88 95 93
87 84 79 64 53 64 66 81 92 93 85 80 62 58 57 60 65 64 73 77 75 75 86 80 94 89 97 95 92 81 81 70 71 69 71 91 98 92 92 91 94 87 86 89 91
90 89 79 63 54 60 65 88 96 92 84 69 69 63 58 62 67 78 75 72 77 78 84 95 97 94 96 96 87 86 69 75 69 73 76 87 93 96 95 89 91 89 87 81 82
81 70 64 66 51 60 72 99 98 89 76 71 65 59 56 62 76 72 71 74 81 88 91 93 98 95 94 88 87 80 68 58 56 60 61 72 94 76 81 86 78 83 84 83 79
75 70 58 57 57 66 91 96 97 79 72 68 68 66 70 76 74 73 77 80 83 89 95 91 87 97 85 78 75 73 66 57 56 54 56 60 78 70 73 73 78 77 75 70 66
76 74 67 64 68 85 97 97 84 75 79 75 71 67 72 76 77 77 82 82 81 83 83 79 80 90 78 72 72 66 60 53 53 58 62 55 67 64 63 63 60 59 60 57 56
64 69 71 82 86 89 96 88 71 72 80 76 66 63 70 73 72 75 74 78 77 75 68 64 69 76 79 79 75 69 57 50 55 59 48 53 58 60 56 56 56 58 58 54 54
55 70 80 88 88 91 83 79 61 71 78 72 62 63 69 70 71 73 71 72 68 60 58 57 66 66 58 58 61 64 61 53 53 49 55 52 53 53 54 54 52 52 52 50 49
75 76 83 86 90 91 76 64 59 68 74 70 64 59 60 66 71 67 63 57 56 55 55 57 65 60 54 50 50 53 55 54 52 48 48 50 53 51 51 51 53 53 55 53 52
78 86 87 87 81 81 64 53 58 62 68 63 63 57 58 61 61 60 56 53 51 53 47 47 53 60 57 49 49 50 49 48 48 49 47 52 50 49 50 50 50 52 53 54 51